Current Weather Conditions: station 62102

sailwx.info

Wind from 190 at 18 knots

Wave height 2.5 meters (8 feet), 6 second period

Air temperature 5.8° C
Visibility: greater than 10.8 NM
Dewpoint 2.6° C

Last reported at 2020-Feb-19 19:00 UTC.
Time now 2020-Feb-19 20:51 UTC

Location: N 57°54' E 001°48'.
View on Google Maps.

See reports from other nearby stations

  
Tides and Currents Weather Stations Pressure Air Temp Water Temp Dewpoint Dewpoint Depression Visibility Wind Speed Wind Dir Waves Ship Positions
date/time (UTC)wind fromknots sea level pressurealtimeterstation pressurevisibilityair tempwater tempwave heightnotes
2020-Feb-19 19:00 190 18 10.8 5.8 2.5
2020-Feb-19 18:00 210 15 10.8 5.8 2.6
2020-Feb-19 17:00 230 13 10.8 5.9 2.8
2020-Feb-19 16:00 250 14 10.8 6.0 2.9
2020-Feb-19 14:00 270 17 5.4 7.3 3.3
2020-Feb-19 13:00 280 15 5.4 7.4 3.4
2020-Feb-19 12:00 280 18 5.4 7.4 3.5
2020-Feb-19 11:00 290 19 10.8 7.3 3.7
2020-Feb-19 10:00 300 19 10.8 6.9 3.6
2020-Feb-19 09:00 300 24 5.4 7.0 3.4
2020-Feb-19 08:00 280 24 5.4 6.5 3.5
2020-Feb-19 07:00 290 25 5.4 6.6 3.0
2020-Feb-19 06:00 280 18 5.4 6.6 2.8
2020-Feb-19 05:00 280 13 5.4 6.4 2.6
2020-Feb-19 04:00 290 14 2.2 5.1 2.7
2020-Feb-19 03:00 270 13 10.8 5.6 2.6
2020-Feb-19 02:00 270 14 10.8 5.2 2.6
2020-Feb-19 01:00 270 13 10.8 5.7 2.7
2020-Feb-19 00:00 280 11 27.0 6.0 2.7
2020-Feb-18 23:00 290 11 10.8 5.8 2.7
2020-Feb-18 22:00 300 6 10.8 6.5 2.8
2020-Feb-18 21:00 290 13 10.8 6.7 2.8
2020-Feb-18 20:00 280 11 10.8 6.4 3.2
2020-Feb-18 19:00 250 19 10.8 5.9 3.2
2020-Feb-18 18:00 260 19 10.8 5.9 3.4
2020-Feb-18 17:00 270 18 10.8 5.9 3.6
2020-Feb-18 16:00 260 21 10.8 5.8 3.6
2020-Feb-18 15:00 260 22 10.8 5.8 3.6
2020-Feb-18 14:00 250 24 10.8 5.9 3.9
2020-Feb-18 13:00 250 25 10.8 5.9 3.9
2020-Feb-18 12:00 250 22 10.8 5.9 3.8
2020-Feb-18 11:00 250 24 10.8 5.8 3.8
2020-Feb-18 10:00 260 25 10.8 5.8 3.9
2020-Feb-18 09:00 260 26 10.8 5.9 3.8
2020-Feb-18 08:00 260 26 10.8 5.9 3.9
2020-Feb-18 07:00 260 25 10.8 5.9 4.0
2020-Feb-18 06:00 260 26 10.8 5.9 3.7
2020-Feb-18 05:00 260 27 10.8 6.1 3.8
2020-Feb-18 04:00 270 25 10.8 6.3 3.6
2020-Feb-18 03:00 270 22 10.8 6.5 4.0
2020-Feb-18 02:00 270 20 10.8 6.7 4.1
2020-Feb-18 01:00 270 21 10.8 6.6 4.1
2020-Feb-18 00:00 270 20 10.8 6.8 4.1
2020-Feb-17 23:00 270 24 10.8 6.9 4.1
2020-Feb-17 22:00 260 26 10.8 6.8 3.6
2020-Feb-17 21:00 250 24 5.4 6.9 3.8
2020-Feb-17 20:00 250 24 5.4 7.2 3.7